Hourly Data Report for July 18, 2013

All times are specified in Local Standard Time (LST). Add 1 hour to adjust for Daylight Saving Time where and when it is observed.

VICTORIA INTL A
BRITISH COLUMBIA

48°38'50.000" N
123°25'33.000" W
19.50 m
1018621
71799
YYJ

Download Data

Hourly Data (July 2013)
Hourly Data Report for July 18, 2013
Temp Definition
°C
Dew Point Temp Definition
°C
Rel Hum Definition
%
Wind Dir Definition
10's deg

Wind Spd Definition
km/h
Visibility Definition
km
Stn Press Definition
kPa
Hmdx Definition


Wind Chill Definition


Weather Definition


TIME
00:00 Legend Double Dagger 16.1 12.5 79 29 10 48.3 101.98     LegendNANA
01:00 Legend Double Dagger 15.8 12.6 81 29 11 48.3 102.00     Clear
02:00 Legend Double Dagger 15.5 12.3 81 29 13 48.3 102.00     LegendNANA
03:00 Legend Double Dagger 15.4 12.2 81 29 16 48.3 102.01     LegendNANA
04:00 Legend Double Dagger 14.9 12.1 83 31 16 48.3 102.03     Clear
05:00 Legend Double Dagger 14.6 12.1 85 30 12 48.3 102.08     LegendNANA
06:00 Legend Double Dagger 15.5 12.3 81 31 14 48.3 102.09     LegendNANA
07:00 Legend Double Dagger 16.2 12.6 79 28 11 48.3 102.13     Clear
08:00 Legend Double Dagger 17.9 13.5 75 28 8 48.3 102.15     LegendNANA
09:00 Legend Double Dagger 19.5 13.5 68 12 4 48.3 102.13     LegendNANA
10:00 Legend Double Dagger 19.4 13.2 67 10 11 48.3 102.11     Clear
11:00 Legend Double Dagger 20.7 12.5 59 10 10 48.3 102.10     LegendNANA
12:00 Legend Double Dagger 21.0 12.8 59 11 15 48.3 102.07     LegendNANA
13:00 Legend Double Dagger 21.8 13.0 57 12 14 48.3 102.01 25   Clear
14:00 Legend Double Dagger 22.1 12.8 55 14 18 48.3 101.96 25   LegendNANA
15:00 Legend Double Dagger 22.6 13.0 54 12 16 48.3 101.90 25   LegendNANA
16:00 Legend Double Dagger 22.8 13.4 55 14 17 48.3 101.84 26   Clear
17:00 Legend Double Dagger 22.6 13.2 55 12 18 48.3 101.80 26   LegendNANA
18:00 Legend Double Dagger 21.8 13.3 58 12 19 48.3 101.77 25   LegendNANA
19:00 Legend Double Dagger 20.2 13.3 64 12 18 48.3 101.75     Clear
20:00 Legend Double Dagger 17.8 13.2 74 6 11 48.3 101.75     LegendNANA
21:00 Legend Double Dagger 16.6 12.8 78 8 7 48.3 101.79     LegendNANA
22:00 Legend Double Dagger 16.0 12.8 81 9 4 48.3 101.78     Clear
23:00 Legend Double Dagger 15.2 12.4 83 2 2 48.3 101.79     LegendNANA

Notes on Data Quality.

Legend

  • E = Estimated
  • M = Missing
  • NA = Not Available
  • ‡ = Partner data that is not subject to review by the National Climate Archives
Date modified: